Location: Stilling
(56.0622°N, 9.9882°E)
Time: 23:49:18
(UTC+00:00)

Cosmos 44 Rocket - Pass Details

Date: 13 July 2020
Orbit: 650 x 740 km, 65.1° (Epoch: 14 August)

Event Time Altitude Azimuth Distance (km) Brightness Sun altitude
Exits shadow 23:17:04 - 222° (SW) 2,197 5.5 -12.3°
Reaches altitude 10° 23:17:24 10° 222° (SW) 2,070 5.3 -12.3°
Maximum altitude 23:22:05 82° 137° (SE) 680 3.2 -12.3°
Drops below altitude 10° 23:26:55 10° 49° (NE) 2,127 6.4 -12.3°
Sets 23:29:17 0° 49° (NE) 3,060 7.3 -12.3°
